Flag for Croatia Weather past 2 weeks in Zagreb, Croatia

Now
81 °F

Passing clouds.


Feels Like: 80 °F
Forecast: 55 / 76 °F
Wind: 7 mph from West

Location: Zagreb / Pleso

Current Time: May 30, 2015 at 5:05:01 PM

Latest Report: May 30, 2015 at 4:30 PM


Visibility: N/A

Pressure: 29.89 "Hg

Humidity: 30%

Dew point: 46 °F

Location of ZagrebLocation

Historic Weather in Zagreb — Graph

°F

Zagreb temperature yesterday

Maximum temperature yesterday: 75 °F (at 3:00 PM)
Minimum temperature yesterday: 43 °F (at 4:30 AM)
Average temperature yesterday: 61 °F

Past Weeks' High & Low Weather Summary

 TemperatureHumidityPressure
High86 °F (May 19, 5:00 PM)94% (May 15, 9:00 PM)30.21 "Hg (May 15, 9:00 PM)
Low43 °F (May 29, 4:30 AM)32% (May 30, 3:00 PM)29.71 "Hg (May 19, 4:30 PM)
Average60 °F74%29.96 "Hg
* Reported May 15 4:00 PM — May 30 4:00 PM, Zagreb, Weather by CustomWeather, © 2015

Note: Actual official high and low records may vary slightly from our data, if they occured in-between our weather recording intervals... More about our weather records

Advertising

Zagreb weather history for previous 24 hours

 ConditionsComfort  
Time TempWeatherWind HumidityBarometerVisibility
4:00 PM
Sat, May 30
81 °FPassing clouds.8 mph34%29.92 "HgN/A
3:30 PM79 °FPassing clouds.8 mph42%29.92 "HgN/A
3:00 PM81 °FSunny.3 mph32%29.92 "Hg10 mi
2:30 PM79 °FPassing clouds.7 mph37%29.92 "HgN/A
2:00 PM77 °FPassing clouds.7 mph39%29.92 "HgN/A
1:30 PM77 °FPassing clouds.6 mph34%29.92 "HgN/A
1:00 PM77 °FSunny.2 mph36%29.92 "Hg10 mi
12:30 PM77 °FSunny.5 mph36%29.95 "Hg10 mi
12:00 PM75 °FPassing clouds.7 mph36%29.95 "HgN/A
11:30 AM75 °FPassing clouds.7 mph39%29.95 "HgN/A
11:00 AM73 °FPassing clouds.6 mph38%29.95 "HgN/A
10:30 AM72 °FPassing clouds.5 mph44%29.95 "HgN/A
10:00 AM70 °FPassing clouds.3 mph57%29.95 "HgN/A
9:30 AM68 °FSunny.2 mph56%29.95 "Hg10 mi
9:00 AM64 °FPassing clouds.3 mph60%29.95 "HgN/A
8:30 AM61 °FSunny.2 mph63%29.95 "Hg10 mi
8:00 AM59 °FSunny.2 mph63%29.95 "Hg10 mi
7:30 AM57 °FSunny.1 mph72%29.95 "Hg10 mi
7:00 AM54 °FSunny.No wind82%29.92 "Hg10 mi
6:30 AM52 °FSunny.1 mph88%29.92 "Hg10 mi
6:00 AM50 °FClear.2 mph88%29.92 "Hg10 mi
5:30 AM46 °FClear.3 mph93%29.92 "Hg10 mi
5:00 AM46 °FClear.2 mph93%29.92 "Hg10 mi
4:30 AM48 °FClear.2 mph87%29.89 "Hg10 mi
4:00 AM48 °FClear.1 mph94%29.92 "Hg10 mi
3:30 AM48 °FClear.No wind87%29.92 "Hg10 mi
3:00 AM50 °FClear.2 mph88%29.92 "Hg10 mi
2:30 AM50 °FClear.2 mph88%29.92 "Hg10 mi
2:00 AM52 °FClear.2 mph88%29.92 "Hg10 mi
1:30 AM52 °FClear.2 mph82%29.92 "Hg10 mi
1:00 AM54 °FClear.2 mph82%29.92 "Hg10 mi
12:30 AM55 °FClear.3 mph77%29.92 "Hg10 mi
12:00 AM57 °FPassing clouds.3 mph77%29.92 "HgN/A
11:30 PM
Fri, May 29
59 °FClear.2 mph72%29.92 "Hg10 mi
10:30 PM63 °FPassing clouds.3 mph64%29.92 "HgN/A
10:00 PM63 °FClear.2 mph64%29.92 "Hg10 mi
9:30 PM64 °FSunny.3 mph56%29.92 "Hg10 mi
9:00 PM66 °FSunny.3 mph52%29.92 "Hg10 mi
8:30 PM68 °FSunny.3 mph49%29.92 "Hg10 mi
8:00 PM70 °FSunny.5 mph50%29.92 "Hg10 mi
7:30 PM72 °FPassing clouds.7 mph41%29.92 "HgN/A
7:00 PM73 °FPassing clouds.7 mph41%29.92 "HgN/A
6:30 PM73 °FPassing clouds.6 mph38%29.92 "HgN/A
6:00 PM75 °FPassing clouds.7 mph41%29.92 "HgN/A
5:30 PM75 °FPassing clouds.5 mph36%29.92 "HgN/A
5:00 PM75 °FPassing clouds.7 mph39%29.95 "HgN/A
Weather by CustomWeather, © 2015

See weather overviewHow to use our weather pages